Torna al catalogo

CZ-6A DEB

AttivoPO
NORAD 54302·DEBRIS·🇨🇳 China

Lanciato Nov 11, 2022 da Taiyuan Satellite Launch Center

Loading…

Prossimi Passaggi (prossime 24 ore)

TLE

AggiornatoSource: Space-Track

Epoca: Sep 14, 2026, 18:51 UTC

1 54302U 22151AV  26257.78610822  .00004002  00000-0  62375-3 0  9993
2 54302  98.8895  24.1800 0094544 282.6988  76.3659 14.70625264203869

Traccia CZ-6A DEB in tempo reale con AllMySat

Download on the App Store